User: anonymous   Login
Location: *
(33.8649°S, 62.1526°E)
Time: 08:44:37
(UTC+00:00)
Language:

Okean 3 - Orbit

View from above orbital plane
View from above orbital plane
View from above satellite
View from above satellite

Ground track
Ground track

The orbit data is extracted from the following two-line orbital elements,

1 21397U 91039A   21102.49685183  .00000242  00000-0  20692-4 0  9995
2 21397  82.5206 252.4013 0016385 246.7369 113.2126 14.93071067596884
Epoch (UTC): 12 April 2021 11:55:27
Eccentricity: 0.0016385
inclination: 82.5206°
perigee height: 577 km
apogee height: 600 km
right ascension of ascending node: 252.4013°
argument of perigee: 246.7369°
revolutions per day: 14.93071067
mean anomaly at epoch: 113.2126°
orbit number at epoch: 59688

The dashed part of the orbit path shows where the satellite is in the earth's shadow,  

DLR